Weather in Kondinskoye

Russia / Khanty-Mansi Autonomous Okrug — Yugra     59°38′58″N   67°24′50″E
В апреле 2022 года жителям России запретили посещать сайт meteo.paraplan.net по решению Генеральной прокуратуры. Аудитория сайта уменьшилась в 10 раз. Владельцы сайта не видят смысла в поддержке погодного сервера в таких условиях. Сайт будет закрыт в октябре.
temp.,
°C
wind,
m/s
gust,
m/s
humid.,
%
clouds,
%
prec.,
mm/h
press.,
hPa
HPBL,
m
25 september, sun
sun2523:00+5ene4108294 0.0 1019373
02:00+5ene51165100 0.0 1019480
05:00+4ne41068100 0.0 1020341
08:00+3ne5117566 0.0 1021436
11:00+7ne68525 0.0 10211064
14:00+8ne675132 0.0 10211289
17:00+5nne676036 0.0 10221083
20:00+4ne6957100 0.0 10231240
26 september, mon
mon2623:00+1ne49675 0.0 1023370
02:00−1ene410763 0.0 1023311
05:00−3ne49805 0.0 1023230
08:00−1ne510715 0.0 1022449
11:00+4ene67515 0.0 10211117
14:00+5ne674364 0.0 10201473
17:00+4ne68485 0.0 10191304
20:000ne49665 0.0 1020228
27 september, tue
tue2723:00−2ne49755 0.0 1020217
02:00−3nne498420 0.0 1020211
05:00−3nne4984100 0.0 1020269
08:00−1nne4777100 0.0 1020425
11:00+2nne4562100 0.0 10211142
14:00+2nne4558100 0.1 10211295
17:00+3nne354863 0.1 10211321
20:000n3664100 0.0 1022129
28 september, wed
wed2823:000nne3869100 0.0 1022295
02:00−1n2695100 0.1 1023310
05:00−3n379617 0.2 1023212
08:00−2n498769 0.0 1024403
11:00+2nne566199 0.0 10241252
14:00+3n5752100 0.1 10251557
17:00+2n5757100 0.1 10251244
20:000n386981 0.0 1026329
29 september, thu
thu2923:00−3n357924 0.0 102785
02:00−4n38865 0.0 1028162
05:00−4n389710 0.0 1029196
08:00−2nne48857 0.0 1030352
11:00+2nne455561 0.0 10311009
14:00+4nne454698 0.0 10311560
17:00+3n465062 0.0 1032463
20:00−2n35715 0.0 103472